QPF
0.26 0.25 0.18 0.08 0.02 0.00 0.00 0.00 0.00 0.00 0.00 0.00 0.00 0.00 0.00 0.00 0.00 0.00 0.00 0.00 0.00 0.00 0.00 0.00 0.00 0.00 0.00 0.00 0.00 0.00 0.00 0.00 0.00 0.00 0.00 0.00 0.00 0.00 0.00 0.00 0.00 0.00 0.00 0.00
0.27 0.21 0.09 0.03 0.02 0.01 0.01 0.00 0.00 0.00 0.00 0.00 0.00 0.00 0.00 0.00 0.00 0.00 0.00 0.00 0.00 0.00 0.00 0.00 0.00 0.00 0.00 0.00 0.00 0.00 0.00 0.00 0.00 0.00 0.00 0.00 0.00 0.00 0.00 0.00 0.00 0.00 0.00 0.00
0.17 0.11 0.05 0.04 0.03 0.03 0.02 0.01 0.00 0.00 0.00 0.00 0.00 0.00 0.00 0.00 0.00 0.00 0.00 0.00 0.00 0.00 0.00 0.00 0.00 0.00 0.00 0.00 0.00 0.00 0.00 0.00 0.00 0.00 0.00 0.00 0.00 0.00 0.00 0.00 0.00 0.00 0.00 0.00
0.13 0.06 0.04 0.06 0.05 0.03 0.02 0.00 0.00 0.00 0.01 0.01 0.00 0.00 0.00 0.00 0.00 0.00 0.00 0.00 0.00 0.00 0.00 0.00 0.00 0.00 0.00 0.00 0.00 0.00 0.00 0.00 0.00 0.00 0.00 0.00 0.00 0.00 0.00 0.00 0.00 0.00 0.00 0.00
0.18 0.07 0.05 0.06 0.04 0.03 0.02 0.01 0.01 0.01 0.01 0.02 0.01 0.00 0.00 0.00 0.00 0.00 0.00 0.00 0.00 0.00 0.00 0.00 0.00 0.00 0.00 0.00 0.00 0.00 0.00 0.00 0.00 0.00 0.00 0.00 0.00 0.00 0.00 0.00 0.00 0.00 0.00 0.00
0.15 0.06 0.04 0.03 0.02 0.03 0.03 0.03 0.03 0.03 0.05 0.06 0.02 0.00 0.00 0.00 0.00 0.00 0.00 0.00 0.00 0.00 0.00 0.00 0.00 0.00 0.00 0.00 0.00 0.00 0.00 0.00 0.00 0.00 0.00 0.00 0.00 0.00 0.00 0.00 0.00 0.00 0.00 0.00
0.26 0.14 0.07 0.05 0.05 0.07 0.07 0.09 0.15 0.19 0.18 0.10 0.01 0.00 0.00 0.00 0.00 0.00 0.00 0.00 0.00 0.00 0.00 0.00 0.00 0.00 0.00 0.00 0.00 0.00 0.00 0.00 0.00 0.00 0.00 0.00 0.00 0.00 0.00 0.00 0.00 0.00 0.00 0.00
0.27 0.21 0.11 0.07 0.06 0.08 0.08 0.07 0.10 0.11 0.08 0.03 0.00 0.00 0.00 0.00 0.00 0.00 0.00 0.00 0.00 0.00 0.00 0.00 0.00 0.00 0.00 0.00 0.00 0.00 0.00 0.00 0.00 0.00 0.00 0.00 0.00 0.00 0.00 0.00 0.00 0.00 0.00 0.00
0.16 0.13 0.06 0.04 0.04 0.04 0.05 0.05 0.03 0.02 0.02 0.00 0.00 0.00 0.00 0.00 0.00 0.00 0.00 0.00 0.00 0.00 0.00 0.00 0.00 0.00 0.00 0.00 0.00 0.00 0.00 0.00 0.00 0.00 0.00 0.00 0.00 0.00 0.00 0.00 0.00 0.00 0.00 0.00
0.11 0.11 0.05 0.03 0.04 0.05 0.04 0.04 0.06 0.09 0.09 0.03 0.00 0.00 0.00 0.00 0.00 0.00 0.00 0.00 0.00 0.00 0.00 0.00 0.00 0.00 0.00 0.00 0.00 0.00 0.00 0.00 0.00 0.00 0.00 0.00 0.00 0.00 0.00 0.00 0.00 0.00 0.00 0.00
0.17 0.14 0.10 0.07 0.07 0.07 0.06 0.08 0.10 0.13 0.10 0.03 0.01 0.00 0.00 0.00 0.00 0.00 0.00 0.00 0.00 0.00 0.00 0.00 0.00 0.00 0.00 0.00 0.00 0.00 0.00 0.00 0.00 0.00 0.00 0.00 0.00 0.00 0.00 0.00 0.00 0.00 0.00 0.00
0.17 0.21 0.16 0.08 0.05 0.03 0.03 0.05 0.07 0.09 0.12 0.03 0.00 0.00 0.00 0.00 0.00 0.00 0.00 0.00 0.00 0.00 0.00 0.00 0.00 0.00 0.00 0.00 0.00 0.00 0.00 0.00 0.00 0.00 0.00 0.00 0.00 0.01 0.01 0.00 0.00 0.00 0.00 0.00
0.15 0.24 0.27 0.23 0.16 0.09 0.08 0.06 0.04 0.03 0.04 0.03 0.01 0.00 0.00 0.00 0.00 0.00 0.00 0.00 0.00 0.00 0.00 0.00 0.00 0.00 0.00 0.00 0.00 0.00 0.00 0.00 0.00 0.00 0.00 0.00 0.00 0.01 0.01 0.01 0.00 0.00 0.01 0.01
0.18 0.24 0.20 0.17 0.13 0.09 0.08 0.05 0.03 0.04 0.06 0.05 0.01 0.00 0.00 0.00 0.00 0.00 0.00 0.00 0.00 0.00 0.00 0.00 0.00 0.00 0.00 0.00 0.00 0.00 0.00 0.00 0.00 0.00 0.00 0.00 0.00 0.00 0.00 0.01 0.01 0.01 0.01 0.02
0.24 0.27 0.15 0.06 0.03 0.03 0.04 0.03 0.02 0.02 0.03 0.02 0.01 0.00 0.00 0.00 0.00 0.00 0.00 0.00 0.00 0.00 0.00 0.00 0.00 0.00 0.00 0.00 0.00 0.00 0.00 0.00 0.00 0.00 0.00 0.00 0.00 0.00 0.00 0.00 0.01 0.01 0.01 0.02
0.29 0.27 0.16 0.08 0.04 0.03 0.04 0.03 0.03 0.02 0.01 0.01 0.00 0.00 0.00 0.00 0.00 0.00 0.00 0.00 0.00 0.00 0.00 0.00 0.00 0.00 0.00 0.00 0.00 0.00 0.00 0.00 0.00 0.00 0.00 0.00 0.00 0.00 0.01 0.01 0.01 0.01 0.01 0.01
0.31 0.30 0.22 0.14 0.06 0.09 0.10 0.03 0.02 0.02 0.01 0.01 0.00 0.00 0.00 0.00 0.00 0.00 0.00 0.00 0.00 0.00 0.00 0.00 0.00 0.00 0.00 0.00 0.00 0.00 0.00 0.00 0.00 0.00 0.00 0.00 0.00 0.00 0.00 0.01 0.01 0.01 0.01 0.01
0.22 0.23 0.24 0.18 0.13 0.20 0.10 0.01 0.00 0.00 0.00 0.00 0.00 0.00 0.00 0.00 0.00 0.00 0.00 0.00 0.00 0.00 0.00 0.00 0.00 0.00 0.00 0.00 0.00 0.00 0.00 0.00 0.00 0.00 0.00 0.00 0.00 0.00 0.00 0.00 0.00 0.00 0.01 0.01
0.14 0.18 0.23 0.21 0.18 0.12 0.03 0.00 0.00 0.00 0.00 0.00 0.00 0.00 0.00 0.00 0.00 0.00 0.00 0.00 0.00 0.00 0.00 0.00 0.00 0.00 0.00 0.00 0.00 0.00 0.00 0.00 0.00 0.00 0.00 0.00 0.01 0.01 0.01 0.00 0.00 0.00 0.00 0.01
0.12 0.16 0.23 0.21 0.17 0.09 0.02 0.00 0.00 0.00 0.01 0.00 0.00 0.00 0.00 0.00 0.00 0.00 0.00 0.00 0.00 0.00 0.00 0.00 0.00 0.00 0.00 0.00 0.00 0.00 0.00 0.00 0.00 0.00 0.00 0.01 0.01 0.01 0.01 0.01 0.00 0.00 0.00 0.01
0.22 0.25 0.26 0.20 0.12 0.03 0.00 0.00 0.00 0.02 0.01 0.00 0.00 0.00 0.00 0.00 0.00 0.00 0.00 0.00 0.00 0.00 0.00 0.00 0.00 0.00 0.00 0.00 0.00 0.00 0.00 0.00 0.00 0.00 0.00 0.01 0.01 0.01 0.01 0.01 0.00 0.00 0.00 0.00
0.13 0.19 0.19 0.15 0.09 0.03 0.00 0.00 0.01 0.01 0.00 0.00 0.00 0.00 0.00 0.00 0.00 0.00 0.00 0.00 0.00 0.00 0.00 0.00 0.00 0.00 0.00 0.00 0.00 0.00 0.00 0.00 0.00 0.00 0.00 0.00 0.01 0.01 0.01 0.01 0.01 0.00 0.00 0.00
0.04 0.06 0.08 0.08 0.05 0.02 0.02 0.01 0.01 0.00 0.00 0.00 0.00 0.00 0.00 0.00 0.00 0.00 0.00 0.00 0.00 0.00 0.00 0.00 0.00 0.00 0.00 0.00 0.00 0.00 0.00 0.00 0.00 0.00 0.00 0.00 0.00 0.00 0.01 0.01 0.01 0.01 0.01 0.01
0.05 0.04 0.05 0.05 0.03 0.03 0.03 0.03 0.02 0.01 0.00 0.00 0.00 0.00 0.00 0.00 0.00 0.00 0.00 0.00 0.00 0.00 0.00 0.00 0.00 0.00 0.00 0.00 0.00 0.00 0.00 0.00 0.00 0.00 0.00 0.00 0.00 0.00 0.00 0.00 0.00 0.00 0.01 0.01
0.04 0.05 0.06 0.05 0.03 0.02 0.02 0.02 0.02 0.02 0.01 0.00 0.00 0.00 0.00 0.00 0.00 0.00 0.00 0.00 0.00 0.00 0.00 0.00 0.00 0.00 0.00 0.00 0.00 0.00 0.00 0.00 0.00 0.00 0.00 0.00 0.00 0.00 0.00 0.00 0.00 0.00 0.00 0.00
0.03 0.03 0.04 0.05 0.04 0.03 0.02 0.02 0.02 0.01 0.01 0.01 0.00 0.00 0.00 0.00 0.00 0.00 0.00 0.00 0.00 0.00 0.00 0.00 0.00 0.00 0.00 0.00 0.00 0.00 0.00 0.00 0.00 0.00 0.00 0.00 0.00 0.00 0.00 0.00 0.00 0.00 0.00 0.00
MSLP
1016.92 1017.30 1017.64 1017.97 1018.29 1018.62 1018.94 1019.23 1019.48 1019.64 1019.69 1019.61 1019.41 1019.09 1018.70 1018.27 1017.85 1017.47 1017.16 1016.93 1016.78 1016.70 1016.68 1016.72 1016.81 1016.94 1017.12 1017.37 1017.68 1018.06 1018.51 1019.02 1019.56 1020.12 1020.67 1021.20 1021.68 1022.12 1022.50 1022.84 1023.16 1023.46 1023.76 1024.07
1016.46 1016.77 1017.07 1017.37 1017.70 1018.07 1018.47 1018.87 1019.23 1019.48 1019.59 1019.53 1019.28 1018.88 1018.36 1017.77 1017.20 1016.68 1016.26 1015.96 1015.78 1015.70 1015.70 1015.76 1015.86 1016.00 1016.17 1016.41 1016.71 1017.10 1017.58 1018.13 1018.74 1019.39 1020.03 1020.63 1021.17 1021.63 1022.02 1022.33 1022.61 1022.87 1023.14 1023.43
1015.87 1016.12 1016.39 1016.69 1017.06 1017.50 1018.00 1018.52 1018.98 1019.32 1019.47 1019.40 1019.10 1018.59 1017.92 1017.18 1016.45 1015.79 1015.27 1014.90 1014.68 1014.60 1014.62 1014.70 1014.81 1014.96 1015.14 1015.37 1015.68 1016.08 1016.59 1017.19 1017.88 1018.60 1019.32 1019.99 1020.58 1021.06 1021.45 1021.74 1021.97 1022.19 1022.42 1022.68
1015.15 1015.35 1015.59 1015.90 1016.33 1016.86 1017.48 1018.11 1018.68 1019.10 1019.29 1019.20 1018.84 1018.21 1017.41 1016.51 1015.63 1014.84 1014.22 1013.79 1013.54 1013.46 1013.48 1013.58 1013.72 1013.88 1014.06 1014.29 1014.60 1015.01 1015.55 1016.20 1016.94 1017.73 1018.51 1019.24 1019.86 1020.37 1020.75 1021.02 1021.23 1021.41 1021.60 1021.84
1014.32 1014.45 1014.66 1014.99 1015.47 1016.10 1016.83 1017.59 1018.27 1018.77 1018.99 1018.90 1018.47 1017.75 1016.82 1015.79 1014.77 1013.87 1013.16 1012.67 1012.40 1012.31 1012.35 1012.47 1012.62 1012.79 1012.98 1013.21 1013.52 1013.93 1014.48 1015.16 1015.93 1016.75 1017.57 1018.34 1018.99 1019.51 1019.90 1020.17 1020.36 1020.53 1020.71 1020.94
1013.41 1013.45 1013.61 1013.94 1014.46 1015.17 1016.01 1016.89 1017.67 1018.25 1018.53 1018.43 1017.97 1017.18 1016.15 1015.01 1013.89 1012.90 1012.12 1011.59 1011.30 1011.21 1011.26 1011.40 1011.57 1011.74 1011.93 1012.16 1012.46 1012.86 1013.40 1014.06 1014.83 1015.67 1016.50 1017.28 1017.95 1018.49 1018.90 1019.18 1019.40 1019.58 1019.77 1020.02
1012.46 1012.38 1012.46 1012.76 1013.31 1014.07 1015.00 1015.97 1016.85 1017.51 1017.84 1017.77 1017.30 1016.48 1015.40 1014.20 1013.01 1011.96 1011.14 1010.58 1010.27 1010.18 1010.25 1010.40 1010.58 1010.77 1010.95 1011.17 1011.44 1011.81 1012.32 1012.95 1013.68 1014.49 1015.31 1016.09 1016.78 1017.34 1017.77 1018.10 1018.36 1018.58 1018.82 1019.11
1011.54 1011.32 1011.29 1011.53 1012.05 1012.84 1013.80 1014.84 1015.80 1016.53 1016.91 1016.89 1016.45 1015.63 1014.55 1013.33 1012.13 1011.06 1010.22 1009.65 1009.35 1009.27 1009.34 1009.51 1009.70 1009.89 1010.07 1010.26 1010.50 1010.83 1011.28 1011.85 1012.53 1013.29 1014.07 1014.83 1015.51 1016.10 1016.57 1016.96 1017.28 1017.57 1017.87 1018.21
1010.72 1010.34 1010.18 1010.32 1010.78 1011.53 1012.50 1013.55 1014.54 1015.32 1015.76 1015.79 1015.40 1014.63 1013.60 1012.42 1011.24 1010.21 1009.39 1008.83 1008.54 1008.47 1008.56 1008.73 1008.93 1009.12 1009.29 1009.46 1009.67 1009.94 1010.33 1010.82 1011.43 1012.12 1012.85 1013.57 1014.24 1014.84 1015.36 1015.80 1016.19 1016.55 1016.92 1017.31
1010.07 1009.54 1009.23 1009.24 1009.59 1010.25 1011.16 1012.17 1013.15 1013.93 1014.41 1014.49 1014.17 1013.49 1012.54 1011.45 1010.36 1009.39 1008.63 1008.12 1007.85 1007.80 1007.91 1008.09 1008.29 1008.48 1008.65 1008.80 1008.97 1009.19 1009.51 1009.93 1010.45 1011.06 1011.72 1012.39 1013.04 1013.65 1014.19 1014.67 1015.11 1015.53 1015.96 1016.39
1009.63 1008.95 1008.50 1008.36 1008.57 1009.09 1009.87 1010.78 1011.69 1012.44 1012.91 1013.04 1012.80 1012.22 1011.40 1010.44 1009.48 1008.62 1007.95 1007.50 1007.29 1007.27 1007.38 1007.58 1007.79 1007.98 1008.14 1008.28 1008.42 1008.61 1008.87 1009.22 1009.66 1010.18 1010.77 1011.38 1011.99 1012.57 1013.11 1013.61 1014.08 1014.53 1014.97 1015.41
1009.36 1008.58 1008.00 1007.70 1007.73 1008.08 1008.68 1009.43 1010.21 1010.87 1011.32 1011.47 1011.31 1010.85 1010.18 1009.39 1008.59 1007.88 1007.33 1006.97 1006.82 1006.84 1006.98 1007.18 1007.40 1007.59 1007.75 1007.89 1008.03 1008.19 1008.41 1008.70 1009.07 1009.52 1010.03 1010.56 1011.11 1011.65 1012.16 1012.65 1013.11 1013.54 1013.97 1014.39
1009.20 1008.34 1007.65 1007.20 1007.05 1007.19 1007.58 1008.13 1008.74 1009.28 1009.66 1009.82 1009.73 1009.41 1008.90 1008.30 1007.69 1007.15 1006.75 1006.51 1006.43 1006.49 1006.65 1006.87 1007.09 1007.29 1007.47 1007.61 1007.75 1007.91 1008.11 1008.36 1008.68 1009.06 1009.49 1009.96 1010.43 1010.91 1011.37 1011.80 1012.22 1012.62 1013.00 1013.36
1009.02 1008.12 1007.35 1006.77 1006.43 1006.36 1006.52 1006.85 1007.26 1007.66 1007.97 1008.12 1008.10 1007.91 1007.58 1007.18 1006.78 1006.43 1006.18 1006.06 1006.07 1006.18 1006.36 1006.59 1006.82 1007.03 1007.22 1007.39 1007.55 1007.72 1007.92 1008.16 1008.44 1008.78 1009.14 1009.54 1009.94 1010.34 1010.73 1011.10 1011.46 1011.80 1012.11 1012.41
1008.71 1007.80 1006.96 1006.26 1005.77 1005.49 1005.43 1005.54 1005.76 1006.01 1006.24 1006.38 1006.43 1006.37 1006.22 1006.03 1005.83 1005.68 1005.59 1005.60 1005.68 1005.84 1006.04 1006.28 1006.51 1006.74 1006.94 1007.14 1007.33 1007.53 1007.76 1008.01 1008.28 1008.59 1008.92 1009.25 1009.59 1009.92 1010.25 1010.56 1010.85 1011.12 1011.38 1011.62
1008.18 1007.26 1006.37 1005.58 1004.95 1004.50 1004.24 1004.16 1004.21 1004.34 1004.49 1004.64 1004.76 1004.82 1004.85 1004.85 1004.85 1004.88 1004.95 1005.06 1005.22 1005.41 1005.64 1005.87 1006.11 1006.34 1006.57 1006.80 1007.04 1007.29 1007.55 1007.84 1008.13 1008.44 1008.75 1009.05 1009.35 1009.63 1009.91 1010.17 1010.42 1010.65 1010.87 1011.07
1007.40 1006.47 1005.55 1004.69 1003.95 1003.37 1002.96 1002.73 1002.64 1002.67 1002.78 1002.94 1003.12 1003.30 1003.48 1003.65 1003.83 1004.01 1004.21 1004.41 1004.63 1004.86 1005.09 1005.33 1005.56 1005.81 1006.06 1006.33 1006.62 1006.92 1007.25 1007.58 1007.92 1008.25 1008.57 1008.87 1009.16 1009.42 1009.68 1009.92 1010.15 1010.37 1010.59 1010.79
1006.41 1005.46 1004.51 1003.60 1002.80 1002.13 1001.63 1001.30 1001.12 1001.09 1001.18 1001.35 1001.59 1001.86 1002.16 1002.47 1002.78 1003.08 1003.37 1003.65 1003.90 1004.15 1004.38 1004.62 1004.86 1005.11 1005.39 1005.71 1006.05 1006.42 1006.82 1007.22 1007.61 1007.99 1008.35 1008.68 1008.98 1009.26 1009.53 1009.78 1010.03 1010.28 1010.52 1010.75
1005.34 1004.36 1003.39 1002.46 1001.63 1000.92 1000.37 999.99 999.77 999.71 999.78 999.97 1000.24 1000.57 1000.95 1001.34 1001.73 1002.11 1002.46 1002.78 1003.06 1003.32 1003.56 1003.79 1004.04 1004.32 1004.63 1004.98 1005.39 1005.82 1006.29 1006.76 1007.22 1007.66 1008.07 1008.45 1008.79 1009.11 1009.41 1009.70 1010.00 1010.29 1010.58 1010.86
1004.34 1003.34 1002.35 1001.43 1000.60 999.90 999.35 998.95 998.72 998.64 998.70 998.88 999.15 999.50 999.90 1000.33 1000.75 1001.16 1001.54 1001.88 1002.18 1002.45 1002.70 1002.95 1003.21 1003.51 1003.86 1004.26 1004.71 1005.20 1005.73 1006.26 1006.78 1007.28 1007.75 1008.18 1008.58 1008.95 1009.30 1009.64 1009.99 1010.34 1010.68 1011.02
1003.56 1002.55 1001.58 1000.69 999.90 999.24 998.71 998.33 998.10 998.00 998.03 998.18 998.41 998.73 999.10 999.50 999.91 1000.32 1000.70 1001.05 1001.37 1001.66 1001.94 1002.21 1002.51 1002.84 1003.21 1003.65 1004.13 1004.66 1005.23 1005.80 1006.37 1006.92 1007.44 1007.91 1008.36 1008.77 1009.17 1009.57 1009.96 1010.36 1010.75 1011.13
1003.11 1002.12 1001.20 1000.37 999.65 999.05 998.58 998.22 997.99 997.86 997.84 997.91 998.07 998.30 998.59 998.93 999.30 999.68 1000.06 1000.42 1000.77 1001.10 1001.41 1001.73 1002.06 1002.42 1002.82 1003.27 1003.77 1004.31 1004.89 1005.47 1006.06 1006.63 1007.17 1007.68 1008.16 1008.61 1009.04 1009.47 1009.89 1010.31 1010.73 1011.13
1003.03 1002.10 1001.27 1000.54 999.92 999.40 998.98 998.65 998.41 998.23 998.13 998.10 998.14 998.25 998.44 998.69 999.00 999.34 999.72 1000.10 1000.49 1000.87 1001.24 1001.61 1001.98 1002.37 1002.78 1003.22 1003.71 1004.22 1004.77 1005.33 1005.89 1006.45 1007.00 1007.52 1008.01 1008.48 1008.93 1009.37 1009.80 1010.22 1010.63 1011.02
1003.28 1002.47 1001.77 1001.17 1000.67 1000.25 999.89 999.58 999.31 999.07 998.86 998.71 998.61 998.59 998.65 998.80 999.05 999.37 999.75 1000.17 1000.61 1001.06 1001.50 1001.92 1002.33 1002.73 1003.13 1003.54 1003.97 1004.42 1004.89 1005.39 1005.91 1006.43 1006.95 1007.46 1007.95 1008.43 1008.88 1009.32 1009.74 1010.13 1010.51 1010.86
1003.79 1003.14 1002.61 1002.17 1001.81 1001.49 1001.19 1000.90 1000.59 1000.27 999.96 999.66 999.42 999.26 999.21 999.28 999.47 999.78 1000.19 1000.66 1001.17 1001.70 1002.20 1002.67 1003.10 1003.49 1003.85 1004.19 1004.52 1004.87 1005.24 1005.65 1006.09 1006.55 1007.03 1007.52 1008.01 1008.49 1008.94 1009.37 1009.76 1010.12 1010.46 1010.75
1004.47 1004.02 1003.68 1003.42 1003.20 1002.99 1002.75 1002.47 1002.12 1001.72 1001.30 1000.88 1000.51 1000.24 1000.09 1000.09 1000.26 1000.57 1001.02 1001.55 1002.14 1002.73 1003.29 1003.79 1004.21 1004.56 1004.84 1005.08 1005.30 1005.52 1005.77 1006.06 1006.41 1006.80 1007.24 1007.72 1008.20 1008.68 1009.14 1009.56 1009.94 1010.27 1010.55 1010.78
Thickness
5573 5572 5583 5598 5604 5609 5605 5606 5610 5621 5634 5632 5635 5645 5660 5667 5668 5673 5678 5682 5688 5696 5702 5702 5703 5702 5700 5698 5697 5695 5692 5689 5686 5682 5680 5677 5676 5674 5673 5672 5671 5668 5666 5664
5561 5573 5594 5597 5594 5595 5596 5598 5603 5613 5623 5624 5624 5635 5651 5660 5665 5673 5679 5683 5688 5694 5697 5700 5702 5702 5702 5701 5699 5696 5694 5691 5689 5686 5683 5680 5677 5675 5673 5671 5670 5668 5666 5664
5568 5585 5589 5584 5582 5584 5588 5595 5600 5602 5611 5614 5613 5619 5637 5654 5662 5671 5679 5686 5691 5695 5698 5701 5702 5703 5703 5703 5702 5699 5696 5693 5690 5686 5680 5676 5672 5671 5670 5669 5669 5667 5665 5663
5560 5573 5574 5575 5579 5582 5586 5597 5596 5594 5592 5592 5599 5598 5627 5646 5656 5668 5678 5684 5690 5696 5700 5703 5704 5704 5706 5707 5705 5702 5698 5694 5691 5686 5681 5678 5676 5676 5676 5673 5670 5667 5664 5662
5559 5567 5569 5572 5584 5584 5586 5591 5587 5586 5582 5580 5586 5588 5615 5636 5650 5669 5680 5686 5692 5697 5700 5703 5706 5709 5709 5708 5705 5703 5698 5694 5690 5686 5683 5679 5677 5677 5673 5670 5667 5665 5663 5660
5554 5563 5568 5576 5581 5579 5578 5576 5574 5572 5567 5567 5584 5581 5606 5631 5656 5668 5677 5685 5692 5696 5699 5703 5706 5707 5708 5706 5703 5700 5697 5694 5690 5686 5683 5680 5678 5675 5670 5668 5666 5664 5661 5659
5540 5548 5559 5567 5563 5563 5567 5561 5555 5555 5557 5570 5585 5580 5614 5641 5658 5669 5676 5683 5689 5694 5696 5699 5700 5702 5703 5702 5701 5698 5695 5693 5690 5686 5683 5681 5678 5674 5671 5669 5666 5663 5660 5658
5536 5543 5554 5562 5568 5568 5570 5566 5561 5559 5560 5564 5567 5579 5620 5641 5655 5665 5673 5680 5685 5689 5693 5696 5699 5700 5701 5700 5699 5696 5693 5691 5688 5685 5683 5680 5677 5673 5670 5668 5665 5662 5661 5660
5534 5544 5555 5563 5571 5568 5561 5560 5568 5555 5547 5551 5557 5578 5608 5632 5643 5654 5663 5670 5677 5683 5687 5691 5694 5696 5697 5697 5696 5694 5692 5689 5687 5684 5681 5678 5675 5671 5670 5667 5662 5660 5658 5656
5533 5535 5545 5554 5555 5558 5564 5562 5551 5547 5546 5548 5558 5570 5605 5630 5640 5648 5656 5664 5672 5676 5679 5683 5686 5689 5690 5691 5691 5689 5688 5687 5685 5682 5679 5676 5673 5671 5668 5663 5659 5657 5655 5651
5523 5525 5532 5538 5548 5556 5555 5552 5552 5549 5545 5551 5552 5582 5626 5637 5642 5646 5655 5661 5666 5669 5672 5675 5677 5679 5681 5681 5681 5681 5681 5680 5678 5676 5674 5672 5670 5667 5664 5660 5658 5655 5651 5647
5515 5517 5521 5535 5549 5558 5556 5559 5555 5551 5546 5552 5561 5590 5631 5633 5640 5644 5649 5655 5658 5661 5663 5665 5666 5667 5668 5670 5671 5671 5672 5672 5671 5670 5667 5666 5664 5661 5659 5657 5655 5651 5647 5644
5510 5507 5511 5515 5522 5535 5542 5552 5556 5557 5546 5542 5551 5588 5626 5623 5628 5634 5640 5644 5646 5649 5651 5651 5653 5655 5657 5658 5659 5660 5661 5661 5661 5659 5658 5657 5656 5654 5653 5652 5650 5646 5642 5639
5503 5502 5512 5526 5540 5544 5545 5550 5554 5549 5546 5548 5560 5591 5614 5616 5620 5624 5628 5632 5634 5637 5639 5640 5642 5644 5646 5647 5647 5648 5649 5649 5648 5647 5647 5647 5647 5646 5646 5644 5641 5638 5635 5632
5490 5494 5505 5518 5528 5533 5539 5545 5549 5551 5558 5557 5573 5588 5611 5612 5614 5617 5620 5621 5622 5626 5628 5631 5632 5634 5635 5636 5636 5637 5637 5637 5637 5636 5636 5637 5636 5634 5633 5632 5631 5629 5626 5624
5478 5483 5492 5501 5514 5522 5526 5537 5541 5548 5556 5560 5568 5584 5614 5609 5605 5607 5610 5611 5614 5618 5621 5623 5624 5625 5626 5628 5629 5628 5627 5627 5626 5625 5625 5624 5622 5620 5619 5618 5616 5615 5613 5611
5468 5471 5479 5492 5501 5504 5510 5535 5545 5551 5560 5564 5568 5598 5604 5597 5599 5604 5604 5604 5608 5612 5614 5616 5618 5620 5621 5621 5621 5620 5619 5616 5614 5613 5611 5610 5608 5606 5605 5603 5601 5600 5599 5597
5461 5462 5466 5478 5488 5498 5528 5548 5551 5555 5563 5568 5577 5593 5595 5597 5599 5601 5602 5602 5604 5606 5607 5608 5610 5612 5612 5611 5611 5610 5607 5604 5602 5600 5599 5597 5595 5594 5591 5589 5588 5586 5584 5583
5461 5459 5458 5470 5482 5494 5514 5534 5549 5549 5557 5571 5576 5588 5589 5586 5581 5587 5596 5599 5601 5602 5603 5603 5603 5602 5601 5599 5599 5596 5593 5590 5589 5588 5586 5584 5582 5580 5578 5576 5574 5572 5570 5569
5455 5456 5455 5463 5475 5489 5529 5542 5550 5541 5541 5570 5573 5582 5580 5570 5566 5594 5597 5590 5591 5590 5590 5590 5589 5588 5587 5586 5584 5581 5579 5577 5576 5576 5574 5572 5570 5568 5566 5564 5561 5558 5556 5555
5447 5449 5453 5458 5466 5485 5519 5526 5531 5519 5551 5571 5568 5574 5572 5570 5585 5595 5585 5580 5578 5577 5576 5576 5575 5574 5573 5571 5569 5568 5566 5566 5565 5563 5560 5558 5556 5554 5553 5550 5547 5544 5541 5539
5451 5453 5456 5458 5463 5485 5506 5511 5522 5533 5550 5551 5554 5560 5561 5568 5572 5567 5564 5563 5561 5560 5560 5560 5558 5556 5556 5556 5555 5555 5553 5553 5549 5547 5545 5544 5542 5540 5538 5536 5532 5529 5527 5525
5447 5454 5458 5466 5477 5481 5484 5491 5500 5507 5520 5527 5532 5539 5545 5549 5551 5550 5549 5547 5546 5546 5545 5543 5542 5540 5539 5539 5540 5541 5539 5536 5534 5532 5530 5529 5527 5526 5524 5522 5519 5515 5513 5511
5429 5434 5444 5452 5460 5463 5466 5470 5478 5486 5493 5502 5510 5518 5527 5531 5534 5531 5531 5529 5528 5527 5526 5526 5526 5525 5522 5521 5522 5523 5522 5520 5519 5517 5516 5514 5512 5510 5508 5506 5505 5502 5499 5496
5405 5416 5430 5441 5443 5447 5453 5453 5460 5467 5473 5480 5487 5495 5504 5510 5512 5513 5512 5511 5509 5508 5506 5507 5508 5507 5504 5503 5503 5503 5503 5504 5503 5502 5500 5498 5496 5495 5492 5490 5488 5486 5484 5483
5383 5390 5406 5422 5418 5422 5434 5437 5441 5448 5453 5459 5467 5474 5479 5486 5490 5491 5489 5489 5488 5488 5488 5487 5487 5487 5485 5484 5484 5484 5486 5488 5489 5487 5485 5483 5481 5478 5476 5474 5471 5470 5469 5468